| time (UTC) | temp F | wind direction | speed MPH | gust MPH | rain 1hr in | rain 24hr in | rain mn in | humidity % | barometer mb |
| 20260902123218 | 72 | 224 | 0.0 | 1.0 | 0.00 | 0.00 | 0.00 | 43 | 1012.5 |
| 20260902122719 | 72 | 96 | 0.0 | 0.0 | 0.00 | 0.00 | 0.00 | 39 | 1012.4 |
| 20260902122218 | 73 | 96 | 0.0 | 1.0 | 0.00 | 0.00 | 0.00 | 40 | 1012.5 |
| 20260902121717 | 73 | 103 | 0.0 | 1.0 | 0.00 | 0.00 | 0.00 | 37 | 1012.4 |
| 20260902121219 | 74 | 116 | 0.0 | 1.0 | 0.00 | 0.00 | 0.00 | 37 | 1012.3 |
| 20260902120718 | 74 | 169 | 0.0 | 1.0 | 0.00 | 0.00 | 0.00 | 37 | 1012.5 |
| 20260902120219 | 74 | 169 | 1.0 | 3.0 | 0.00 | 0.00 | 0.00 | 37 | 1012.4 |
| 20260902115718 | 74 | 167 | 1.0 | 3.0 | 0.00 | 0.00 | 0.00 | 37 | 1012.4 |
| 20260902115437 | 73 | 171 | 0.0 | 3.0 | 0.00 | 0.00 | 0.00 | 37 | 1012.5 |
| 20260902114713 | 73 | 200 | 0.0 | 2.0 | 0.00 | 0.00 | 0.00 | 39 | 1012.4 |
| 20260902114213 | 73 | 221 | 0.0 | 2.0 | 0.00 | 0.00 | 0.00 | 38 | 1012.4 |
| 20260902113713 | 73 | 191 | 0.0 | 1.0 | 0.00 | 0.00 | 0.00 | 39 | 1012.4 |
| 20260902113214 | 74 | 195 | 0.0 | 1.0 | 0.00 | 0.00 | 0.00 | 39 | 1012.3 |
| 20260902112944 | 74 | 169 | 0.0 | 1.0 | 0.00 | 0.00 | 0.00 | 38 | 1012.2 |
| 20260902112215 | 74 | 160 | 0.0 | 1.0 | 0.00 | 0.00 | 0.00 | 38 | 1012.3 |
| 20260902111716 | 74 | 214 | 1.0 | 2.0 | 0.00 | 0.00 | 0.00 | 37 | 1012.3 |
| 20260902111215 | 74 | 209 | 1.0 | 2.0 | 0.00 | 0.00 | 0.00 | 38 | 1012.4 |
| 20260902110442 | 74 | 160 | 0.0 | 1.0 | 0.00 | 0.00 | 0.00 | 38 | 1012.4 |
| 20260902105937 | 74 | 184 | 0.0 | 2.0 | 0.00 | 0.00 | 0.00 | 38 | 1012.3 |
| 20260902105453 | 74 | 227 | 1.0 | 3.0 | 0.00 | 0.00 | 0.00 | 38 | 1012.4 |
| 20260902104710 | 74 | 168 | 1.0 | 3.0 | 0.00 | 0.00 | 0.00 | 39 | 1012.4 |
| 20260902104210 | 74 | 184 | 0.0 | 2.0 | 0.00 | 0.00 | 0.00 | 39 | 1012.4 |
| 20260902103709 | 74 | 212 | 0.0 | 2.0 | 0.00 | 0.00 | 0.00 | 39 | 1012.4 |
| 20260902103211 | 74 | 212 | 0.0 | 2.0 | 0.00 | 0.00 | 0.00 | 39 | 1012.5 |
| 20260902102710 | 74 | 207 | 0.0 | 2.0 | 0.00 | 0.00 | 0.00 | 40 | 1012.5 |
| 20260902102206 | 74 | 166 | 0.0 | 2.0 | 0.00 | 0.00 | 0.00 | 40 | 1012.3 |
| 20260902101705 | 74 | 179 | 0.0 | 2.0 | 0.00 | 0.00 | 0.00 | 39 | 1012.3 |
| 20260902101206 | 74 | 240 | 0.0 | 1.0 | 0.00 | 0.00 | 0.00 | 39 | 1012.4 |
| 20260902100706 | 74 | 207 | 0.0 | 1.0 | 0.00 | 0.00 | 0.00 | 39 | 1012.5 |
| 20260902100206 | 74 | 210 | 0.0 | 1.0 | 0.00 | 0.00 | 0.00 | 40 | 1012.6 |
| 20260902095706 | 74 | 203 | 0.0 | 1.0 | 0.00 | 0.00 | 0.00 | 39 | 1012.5 |
| 20260902095205 | 75 | 206 | 0.0 | 1.0 | 0.00 | 0.00 | 0.00 | 38 | 1012.6 |
| 20260902094706 | 75 | 206 | 0.0 | 1.0 | 0.00 | 0.00 | 0.00 | 38 | 1012.6 |
| 20260902094206 | 75 | 179 | 0.0 | 2.0 | 0.00 | 0.00 | 0.00 | 38 | 1012.5 |
| 20260902093706 | 76 | 212 | 0.0 | 2.0 | 0.00 | 0.00 | 0.00 | 38 | 1012.5 |
| 20260902093435 | 76 | 205 | 0.0 | 2.0 | 0.00 | 0.00 | 0.00 | 38 | 1012.5 |
| 20260902092705 | 76 | 200 | 0.0 | 2.0 | 0.00 | 0.00 | 0.00 | 38 | 1012.5 |
| 20260902092205 | 76 | 174 | 1.0 | 3.0 | 0.00 | 0.00 | 0.00 | 38 | 1012.5 |
| 20260902091936 | 76 | 181 | 1.0 | 3.0 | 0.00 | 0.00 | 0.00 | 38 | 1012.6 |
| 20260902091205 | 76 | 195 | 0.0 | 2.0 | 0.00 | 0.00 | 0.00 | 39 | 1012.6 |
| 20260902090933 | 76 | 216 | 0.0 | 1.0 | 0.00 | 0.00 | 0.00 | 39 | 1012.6 |
| 20260902090205 | 76 | 160 | 0.0 | 3.0 | 0.00 | 0.00 | 0.00 | 39 | 1012.6 |
| 20260902085706 | 76 | 189 | 0.0 | 3.0 | 0.00 | 0.00 | 0.00 | 39 | 1012.6 |
| 20260902085205 | 76 | 139 | 0.0 | 1.0 | 0.00 | 0.00 | 0.00 | 38 | 1012.5 |
| 20260902084706 | 77 | 169 | 0.0 | 2.0 | 0.00 | 0.00 | 0.00 | 38 | 1012.6 |
| 20260902084431 | 77 | 249 | 0.0 | 2.0 | 0.00 | 0.00 | 0.00 | 37 | 1012.5 |
| 20260902083701 | 77 | 164 | 0.0 | 1.0 | 0.00 | 0.00 | 0.00 | 37 | 1012.5 |
| 20260902083201 | 77 | 168 | 0.0 | 1.0 | 0.00 | 0.00 | 0.00 | 37 | 1012.5 |
| 20260902082701 | 77 | 141 | 0.0 | 0.0 | 0.00 | 0.00 | 0.00 | 37 | 1012.6 |
| 20260902082201 | 77 | 141 | 0.0 | 0.0 | 0.00 | 0.00 | 0.00 | 36 | 1012.4 |
| 20260902081703 | 78 | 156 | 0.0 | 2.0 | 0.00 | 0.00 | 0.00 | 36 | 1012.4 |
| 20260902081202 | 78 | 156 | 0.0 | 2.0 | 0.00 | 0.00 | 0.00 | 35 | 1012.4 |
| 20260902080701 | 78 | 175 | 0.0 | 1.0 | 0.00 | 0.00 | 0.00 | 36 | 1012.3 |
| 20260902080200 | 79 | 175 | 0.0 | 1.0 | 0.00 | 0.00 | 0.00 | 34 | 1012.3 |
| 20260902075701 | 78 | 138 | 0.0 | 0.0 | 0.00 | 0.00 | 0.00 | 33 | 1012.2 |
| 20260902075201 | 79 | 138 | 0.0 | 0.0 | 0.00 | 0.00 | 0.00 | 33 | 1012.2 |
| 20260902074702 | 79 | 138 | 0.0 | 1.0 | 0.00 | 0.00 | 0.00 | 32 | 1012.3 |
| 20260902074201 | 80 | 138 | 0.0 | 1.0 | 0.00 | 0.00 | 0.00 | 32 | 1012.3 |
| 20260902073703 | 80 | 155 | 0.0 | 1.0 | 0.00 | 0.00 | 0.00 | 32 | 1012.1 |
| 20260902073204 | 80 | 223 | 0.0 | 1.0 | 0.00 | 0.00 | 0.00 | 31 | 1012.1 |
| 20260902072702 | 80 | 223 | 0.0 | 2.0 | 0.00 | 0.00 | 0.00 | 32 | 1012.1 |
| 20260902072202 | 80 | 172 | 1.0 | 2.0 | 0.00 | 0.00 | 0.00 | 32 | 1012.0 |
| 20260902071702 | 80 | 215 | 0.0 | 2.0 | 0.00 | 0.00 | 0.00 | 32 | 1012.0 |
| 20260902071203 | 80 | 221 | 0.0 | 2.0 | 0.00 | 0.00 | 0.00 | 33 | 1011.9 |
| 20260902070933 | 80 | 109 | 0.0 | 1.0 | 0.00 | 0.00 | 0.00 | 32 | 1011.8 |
| 20260902070203 | 81 | 99 | 0.0 | 1.0 | 0.00 | 0.00 | 0.00 | 31 | 1011.8 |
| 20260902065703 | 81 | 179 | 0.0 | 3.0 | 0.00 | 0.00 | 0.00 | 31 | 1011.9 |
| 20260902065415 | 82 | 101 | 0.0 | 1.0 | 0.00 | 0.00 | 0.00 | 29 | 1011.8 |
| 20260902065405 | 82 | 198 | 0.0 | 3.0 | 0.00 | 0.00 | 0.00 | 30 | 1011.8 |
| 20260902064203 | 82 | 101 | 0.0 | 1.0 | 0.00 | 0.00 | 0.00 | 29 | 1011.8 |
| 20260902063703 | 82 | 82 | 0.0 | 3.0 | 0.00 | 0.00 | 0.00 | 29 | 1011.7 |
| 20260902063203 | 82 | 43 | 0.0 | 3.0 | 0.00 | 0.00 | 0.00 | 29 | 1011.6 |
| 20260902062702 | 82 | 23 | 0.0 | 1.0 | 0.00 | 0.00 | 0.00 | 29 | 1011.6 |
| 20260902062204 | 83 | 0 | 0.0 | 2.0 | 0.00 | 0.00 | 0.00 | 28 | 1011.6 |
| 20260902061702 | 83 | 343 | 1.0 | 5.0 | 0.00 | 0.00 | 0.00 | 28 | 1011.6 |
| 20260902061202 | 83 | 15 | 1.0 | 5.0 | 0.00 | 0.00 | 0.00 | 27 | 1011.6 |
| 20260902060702 | 83 | 352 | 0.0 | 3.0 | 0.00 | 0.00 | 0.00 | 28 | 1011.6 |
| 20260902060201 | 83 | 31 | 0.0 | 1.0 | 0.00 | 0.00 | 0.00 | 27 | 1011.5 |
| 20260902055701 | 83 | 53 | 0.0 | 1.0 | 0.00 | 0.00 | 0.00 | 27 | 1011.5 |
| 20260902055201 | 83 | 19 | 0.0 | 1.0 | 0.00 | 0.00 | 0.00 | 26 | 1011.5 |
| 20260902054201 | 84 | 6 | 0.0 | 1.0 | 0.00 | 0.00 | 0.00 | 26 | 1011.4 |
| 20260902053701 | 84 | 354 | 0.0 | 1.0 | 0.00 | 0.00 | 0.00 | 26 | 1011.4 |
| 20260902053427 | 85 | 257 | 0.0 | 1.0 | 0.00 | 0.00 | 0.00 | 26 | 1011.5 |
| 20260902052701 | 85 | 257 | 0.0 | 1.0 | 0.00 | 0.00 | 0.00 | 24 | 1011.5 |
| 20260902052202 | 86 | 257 | 0.0 | 1.0 | 0.00 | 0.00 | 0.00 | 23 | 1011.4 |
| 20260902051701 | 86 | 256 | 0.0 | 1.0 | 0.00 | 0.00 | 0.00 | 23 | 1011.5 |
| 20260902051201 | 86 | 37 | 0.0 | 2.0 | 0.00 | 0.00 | 0.00 | 22 | 1011.4 |
| 20260902050701 | 86 | 56 | 1.0 | 2.0 | 0.00 | 0.00 | 0.00 | 22 | 1011.3 |
| 20260902050201 | 86 | 209 | 0.0 | 2.0 | 0.00 | 0.00 | 0.00 | 22 | 1011.4 |
| 20260902045655 | 86 | 236 | 0.0 | 2.0 | 0.00 | 0.00 | 0.00 | 23 | 1011.3 |
| 20260902045151 | 86 | 67 | 0.0 | 2.0 | 0.00 | 0.00 | 0.00 | 23 | 1011.2 |
| 20260902044643 | 87 | 14 | 0.0 | 1.0 | 0.00 | 0.00 | 0.00 | 22 | 1011.3 |
| 20260902044140 | 87 | 89 | 0.0 | 1.0 | 0.00 | 0.00 | 0.00 | 21 | 1011.3 |
| 20260902043640 | 87 | 89 | 0.0 | 2.0 | 0.00 | 0.00 | 0.00 | 22 | 1011.5 |
| 20260902043139 | 87 | 65 | 1.0 | 3.0 | 0.00 | 0.00 | 0.00 | 22 | 1011.3 |
| 20260902042635 | 88 | 39 | 1.0 | 4.0 | 0.00 | 0.00 | 0.00 | 22 | 1011.2 |
| 20260902042135 | 88 | 80 | 1.0 | 4.0 | 0.00 | 0.00 | 0.00 | 22 | 1011.1 |
| 20260902041634 | 88 | 89 | 0.0 | 2.0 | 0.00 | 0.00 | 0.00 | 22 | 1011.0 |
| 20260902041134 | 88 | 76 | 0.0 | 2.0 | 0.00 | 0.00 | 0.00 | 22 | 1011.0 |
| 20260902040900 | 88 | 55 | 1.0 | 5.0 | 0.00 | 0.00 | 0.00 | 22 | 1010.9 |
| 20260902040133 | 89 | 43 | 1.0 | 5.0 | 0.00 | 0.00 | 0.00 | 22 | 1010.9 |
| 20260902035632 | 89 | 50 | 1.0 | 4.0 | 0.00 | 0.00 | 0.00 | 22 | 1010.8 |
| 20260902035131 | 89 | 66 | 2.0 | 6.0 | 0.00 | 0.00 | 0.00 | 21 | 1010.6 |
| 20260902034632 | 90 | 345 | 1.0 | 6.0 | 0.00 | 0.00 | 0.00 | 22 | 1010.6 |
| 20260902034131 | 90 | 74 | 0.0 | 4.0 | 0.00 | 0.00 | 0.00 | 22 | 1010.5 |
| 20260902033631 | 90 | 63 | 1.0 | 4.0 | 0.00 | 0.00 | 0.00 | 21 | 1010.5 |
| 20260902033352 | 91 | 137 | 1.0 | 4.0 | 0.00 | 0.00 | 0.00 | 21 | 1010.4 |
| 20260902032629 | 91 | 58 | 3.0 | 10.0 | 0.00 | 0.00 | 0.00 | 21 | 1010.3 |
| 20260902032400 | 92 | 92 | 5.0 | 10.0 | 0.00 | 0.00 | 0.00 | 21 | 1010.3 |
| 20260902031907 | 92 | 199 | 6.0 | 14.0 | 0.00 | 0.00 | 0.00 | 20 | 1010.2 |
| 20260902031125 | 92 | 219 | 7.0 | 20.0 | 0.00 | 0.00 | 0.00 | 21 | 1009.9 |
| 20260902030619 | 93 | 224 | 7.0 | 20.0 | 0.00 | 0.00 | 0.00 | 20 | 1009.9 |
| 20260902030340 | 92 | 269 | 7.0 | 12.0 | 0.00 | 0.00 | 0.00 | 20 | 1009.6 |
| 20260902025607 | 92 | 236 | 7.0 | 12.0 | 0.00 | 0.00 | 0.00 | 21 | 1009.7 |
| 20260902025108 | 93 | 167 | 6.0 | 11.0 | 0.00 | 0.00 | 0.00 | 20 | 1009.7 |
| 20260902024109 | 93 | 172 | 2.0 | 6.0 | 0.00 | 0.00 | 0.00 | 19 | 1009.6 |
| 20260902023605 | 94 | 207 | 2.0 | 7.0 | 0.00 | 0.00 | 0.00 | 18 | 1009.5 |
| 20260902023105 | 94 | 144 | 2.0 | 8.0 | 0.00 | 0.00 | 0.00 | 18 | 1009.4 |
| 20260902022605 | 94 | 173 | 4.0 | 13.0 | 0.00 | 0.00 | 0.00 | 18 | 1009.3 |
| 20260902022106 | 94 | 188 | 4.0 | 13.0 | 0.00 | 0.00 | 0.00 | 17 | 1009.4 |
| 20260902021606 | 95 | 201 | 4.0 | 9.0 | 0.00 | 0.00 | 0.00 | 17 | 1009.4 |
| 20260902021103 | 95 | 217 | 5.0 | 13.0 | 0.00 | 0.00 | 0.00 | 16 | 1009.4 |
| 20260902020603 | 95 | 232 | 7.0 | 16.0 | 0.00 | 0.00 | 0.00 | 16 | 1009.5 |
| 20260902020329 | 96 | 215 | 8.0 | 16.0 | 0.00 | 0.00 | 0.00 | 15 | 1009.3 |
| 20260902015603 | 96 | 294 | 7.0 | 15.0 | 0.00 | 0.00 | 0.00 | 15 | 1009.3 |
| 20260902015103 | 97 | 238 | 6.0 | 11.0 | 0.00 | 0.00 | 0.00 | 14 | 1009.2 |
| 20260902014603 | 97 | 305 | 6.0 | 12.0 | 0.00 | 0.00 | 0.00 | 15 | 1009.2 |
| 20260902014103 | 97 | 191 | 7.0 | 12.0 | 0.00 | 0.00 | 0.00 | 14 | 1009.1 |
| 20260902013603 | 98 | 225 | 9.0 | 16.0 | 0.00 | 0.00 | 0.00 | 13 | 1009.0 |
| 20260902013102 | 98 | 238 | 9.0 | 16.0 | 0.00 | 0.00 | 0.00 | 13 | 1009.0 |
| 20260902012827 | 99 | 206 | 7.0 | 14.0 | 0.00 | 0.00 | 0.00 | 13 | 1008.9 |
| 20260902012102 | 99 | 245 | 7.0 | 16.0 | 0.00 | 0.00 | 0.00 | 13 | 1008.8 |
| 20260902011603 | 100 | 226 | 7.0 | 16.0 | 0.00 | 0.00 | 0.00 | 12 | 1008.9 |
| 20260902011103 | 101 | 245 | 7.0 | 13.0 | 0.00 | 0.00 | 0.00 | 13 | 1009.0 |
| 20260902010601 | 101 | 266 | 8.0 | 14.0 | 0.00 | 0.00 | 0.00 | 13 | 1008.9 |
| 20260902005602 | 101 | 248 | 8.0 | 15.0 | 0.00 | 0.00 | 0.00 | 14 | 1008.9 |
| 20260902005328 | 101 | 160 | 8.0 | 14.0 | 0.00 | 0.00 | 0.00 | 14 | 1008.9 |
| 20260902004602 | 102 | 197 | 6.0 | 13.0 | 0.00 | 0.00 | 0.00 | 13 | 1008.9 |
| 20260902004102 | 102 | 202 | 5.0 | 11.0 | 0.00 | 0.00 | 0.00 | 13 | 1008.8 |
| 20260902003823 | 102 | 247 | 8.0 | 16.0 | 0.00 | 0.00 | 0.00 | 13 | 1008.9 |
| 20260902003101 | 102 | 211 | 9.0 | 16.0 | 0.00 | 0.00 | 0.00 | 13 | 1009.0 |
| 20260902002601 | 103 | 229 | 10.0 | 18.0 | 0.00 | 0.00 | 0.00 | 12 | 1009.0 |
| 20260902002101 | 103 | 229 | 9.0 | 18.0 | 0.00 | 0.00 | 0.00 | 11 | 1008.9 |
| 20260902001601 | 103 | 201 | 7.0 | 17.0 | 0.00 | 0.00 | 0.00 | 12 | 1008.8 |
| 20260902001101 | 103 | 221 | 3.0 | 16.0 | 0.00 | 0.00 | 0.00 | 13 | 1008.9 |
| 20260902000829 | 103 | 72 | 2.0 | 5.0 | 0.00 | 0.00 | 0.00 | 13 | 1009.1 |
| 20260901235602 | 103 | 210 | 2.0 | 6.0 | 0.00 | 0.00 | 0.00 | 14 | 1009.2 |
| 20260901235102 | 103 | 300 | 1.0 | 5.0 | 0.00 | 0.00 | 0.00 | 14 | 1009.2 |
| 20260901234604 | 104 | 339 | 1.0 | 4.0 | 0.00 | 0.00 | 0.00 | 14 | 1009.2 |
| 20260901233104 | 103 | 11 | 2.0 | 6.0 | 0.00 | 0.00 | 0.00 | 15 | 1009.2 |
| 20260901232603 | 103 | 46 | 3.0 | 10.0 | 0.00 | 0.00 | 0.00 | 15 | 1009.2 |
| 20260901232102 | 104 | 56 | 2.0 | 10.0 | 0.00 | 0.00 | 0.00 | 14 | 1009.1 |
| 20260901231829 | 104 | 351 | 2.0 | 8.0 | 0.00 | 0.00 | 0.00 | 14 | 1009.2 |
| 20260901231103 | 103 | 297 | 3.0 | 8.0 | 0.00 | 0.00 | 0.00 | 14 | 1009.4 |
| 20260901230602 | 102 | 175 | 2.0 | 7.0 | 0.00 | 0.00 | 0.00 | 15 | 1009.4 |
| 20260901230103 | 102 | 64 | 2.0 | 6.0 | 0.00 | 0.00 | 0.00 | 16 | 1009.5 |
| 20260901225602 | 102 | 307 | 2.0 | 6.0 | 0.00 | 0.00 | 0.00 | 15 | 1009.5 |
| 20260901225102 | 102 | 46 | 2.0 | 8.0 | 0.00 | 0.00 | 0.00 | 16 | 1009.5 |
| 20260901224828 | 102 | 69 | 3.0 | 8.0 | 0.00 | 0.00 | 0.00 | 16 | 1009.5 |
| 20260901224102 | 102 | 81 | 2.0 | 8.0 | 0.00 | 0.00 | 0.00 | 16 | 1009.6 |
| 20260901223557 | 103 | 352 | 2.0 | 5.0 | 0.00 | 0.00 | 0.00 | 16 | 1009.7 |
| 20260901223051 | 103 | 7 | 2.0 | 5.0 | 0.00 | 0.00 | 0.00 | 17 | 1009.8 |
| 20260901222545 | 103 | 96 | 2.0 | 5.0 | 0.00 | 0.00 | 0.00 | 18 | 1009.8 |
| 20260901222039 | 103 | 70 | 2.0 | 6.0 | 0.00 | 0.00 | 0.00 | 18 | 1009.8 |
| 20260901221532 | 102 | 109 | 2.0 | 6.0 | 0.00 | 0.00 | 0.00 | 17 | 1009.8 |
| 20260901221031 | 102 | 39 | 1.0 | 6.0 | 0.00 | 0.00 | 0.00 | 17 | 1009.9 |
| 20260901220530 | 101 | 309 | 1.0 | 5.0 | 0.00 | 0.00 | 0.00 | 17 | 1009.9 |
| 20260901220031 | 101 | 72 | 1.0 | 6.0 | 0.00 | 0.00 | 0.00 | 17 | 1010.0 |
| 20260901215030 | 101 | 332 | 1.0 | 3.0 | 0.00 | 0.00 | 0.00 | 17 | 1010.2 |
| 20260901214528 | 101 | 25 | 2.0 | 5.0 | 0.00 | 0.00 | 0.00 | 19 | 1010.2 |
| 20260901214032 | 101 | 15 | 2.0 | 6.0 | 0.00 | 0.00 | 0.00 | 17 | 1010.3 |
| 20260901213531 | 101 | 38 | 3.0 | 7.0 | 0.00 | 0.00 | 0.00 | 18 | 1010.4 |
| 20260901213030 | 100 | 22 | 2.0 | 7.0 | 0.00 | 0.00 | 0.00 | 17 | 1010.5 |
| 20260901212752 | 101 | 321 | 2.0 | 6.0 | 0.00 | 0.00 | 0.00 | 16 | 1010.6 |
| 20260901212029 | 101 | 28 | 1.0 | 3.0 | 0.00 | 0.00 | 0.00 | 16 | 1010.5 |
| 20260901211753 | 101 | 47 | 2.0 | 5.0 | 0.00 | 0.00 | 0.00 | 17 | 1010.6 |
| 20260901211029 | 101 | 321 | 2.0 | 7.0 | 0.00 | 0.00 | 0.00 | 16 | 1010.6 |
| 20260901210529 | 101 | 34 | 2.0 | 7.0 | 0.00 | 0.00 | 0.00 | 17 | 1010.7 |
| 20260901210028 | 101 | 43 | 2.0 | 7.0 | 0.00 | 0.00 | 0.00 | 17 | 1010.7 |
| 20260901205258 | 101 | 13 | 2.0 | 7.0 | 0.00 | 0.00 | 0.00 | 16 | 1010.8 |
| 20260901204526 | 102 | 64 | 2.0 | 5.0 | 0.00 | 0.00 | 0.00 | 16 | 1010.9 |
| 20260901204022 | 101 | 347 | 2.0 | 6.0 | 0.00 | 0.00 | 0.00 | 16 | 1011.1 |
| 20260901203515 | 101 | 41 | 2.0 | 7.0 | 0.00 | 0.00 | 0.00 | 17 | 1011.0 |
| 20260901203012 | 101 | 65 | 3.0 | 7.0 | 0.00 | 0.00 | 0.00 | 16 | 1011.1 |
| 20260901202509 | 101 | 118 | 3.0 | 7.0 | 0.00 | 0.00 | 0.00 | 16 | 1011.1 |
| 20260901202010 | 101 | 135 | 3.0 | 7.0 | 0.00 | 0.00 | 0.00 | 16 | 1011.2 |
| 20260901201509 | 101 | 89 | 3.0 | 8.0 | 0.00 | 0.00 | 0.00 | 16 | 1011.2 |
| 20260901201008 | 100 | 155 | 2.0 | 8.0 | 0.00 | 0.00 | 0.00 | 16 | 1011.4 |
| 20260901200508 | 100 | 60 | 2.0 | 7.0 | 0.00 | 0.00 | 0.00 | 16 | 1011.5 |
| 20260901200007 | 100 | 71 | 2.0 | 7.0 | 0.00 | 0.00 | 0.00 | 16 | 1011.5 |
| 20260901195507 | 100 | 38 | 2.0 | 7.0 | 0.00 | 0.00 | 0.00 | 16 | 1011.6 |
| 20260901195008 | 99 | 68 | 3.0 | 7.0 | 0.00 | 0.00 | 0.00 | 17 | 1011.6 |
| 20260901194508 | 100 | 43 | 3.0 | 7.0 | 0.00 | 0.00 | 0.00 | 16 | 1011.8 |
| 20260901194008 | 99 | 86 | 2.0 | 7.0 | 0.00 | 0.00 | 0.00 | 16 | 1011.9 |
| 20260901193509 | 99 | 160 | 2.0 | 6.0 | 0.00 | 0.00 | 0.00 | 16 | 1011.9 |
| 20260901193009 | 99 | 93 | 2.0 | 5.0 | 0.00 | 0.00 | 0.00 | 16 | 1012.1 |
| 20260901192735 | 99 | 63 | 2.0 | 7.0 | 0.00 | 0.00 | 0.00 | 17 | 1012.2 |
| 20260901192008 | 98 | 39 | 1.0 | 7.0 | 0.00 | 0.00 | 0.00 | 17 | 1012.1 |
| 20260901191507 | 98 | 89 | 2.0 | 7.0 | 0.00 | 0.00 | 0.00 | 16 | 1012.2 |
| 20260901191007 | 98 | 39 | 2.0 | 7.0 | 0.00 | 0.00 | 0.00 | 16 | 1012.4 |
| 20260901190506 | 98 | 98 | 2.0 | 5.0 | 0.00 | 0.00 | 0.00 | 15 | 1012.4 |
| 20260901190005 | 98 | 35 | 2.0 | 5.0 | 0.00 | 0.00 | 0.00 | 15 | 1012.5 |
| 20260901185505 | 98 | 94 | 2.0 | 5.0 | 0.00 | 0.00 | 0.00 | 16 | 1012.5 |
| 20260901185006 | 98 | 183 | 2.0 | 5.0 | 0.00 | 0.00 | 0.00 | 15 | 1012.5 |
| 20260901184506 | 98 | 49 | 1.0 | 5.0 | 0.00 | 0.00 | 0.00 | 15 | 1012.6 |
| 20260901184002 | 97 | 27 | 1.0 | 4.0 | 0.00 | 0.00 | 0.00 | 15 | 1012.7 |
| 20260901183502 | 98 | 60 | 1.0 | 4.0 | 0.00 | 0.00 | 0.00 | 15 | 1012.6 |
| 20260901183000 | 98 | 54 | 1.0 | 4.0 | 0.00 | 0.00 | 0.00 | 17 | 1012.7 |
| 20260901182716 | 97 | 191 | 0.0 | 4.0 | 0.00 | 0.00 | 0.00 | 14 | 1012.8 |
| 20260901182000 | 97 | 174 | 0.0 | 2.0 | 0.00 | 0.00 | 0.00 | 16 | 1012.7 |
| 20260901181457 | 96 | 249 | 0.0 | 2.0 | 0.00 | 0.00 | 0.00 | 15 | 1012.7 |
| 20260901180955 | 96 | 219 | 1.0 | 4.0 | 0.00 | 0.00 | 0.00 | 15 | 1012.9 |
| 20260901180456 | 95 | 16 | 1.0 | 4.0 | 0.00 | 0.00 | 0.00 | 18 | 1012.8 |
| 20260901180222 | 95 | 340 | 1.0 | 4.0 | 0.00 | 0.00 | 0.00 | 18 | 1012.9 |
| 20260901175728 | 95 | 45 | 1.0 | 3.0 | 0.00 | 0.00 | 0.00 | 15 | 1012.8 |
| 20260901174951 | 95 | 36 | 1.0 | 3.0 | 0.00 | 0.00 | 0.00 | 15 | 1012.8 |
| 20260901174452 | 96 | 163 | 1.0 | 5.0 | 0.00 | 0.00 | 0.00 | 16 | 1013.0 |
| 20260901173953 | 96 | 257 | 1.0 | 5.0 | 0.00 | 0.00 | 0.00 | 15 | 1013.1 |
| 20260901173451 | 95 | 314 | 0.0 | 1.0 | 0.00 | 0.00 | 0.00 | 16 | 1013.1 |
| 20260901172951 | 95 | 54 | 0.0 | 3.0 | 0.00 | 0.00 | 0.00 | 15 | 1013.2 |
| 20260901172454 | 95 | 123 | 1.0 | 4.0 | 0.00 | 0.00 | 0.00 | 18 | 1013.1 |
| 20260901171953 | 95 | 178 | 1.0 | 4.0 | 0.00 | 0.00 | 0.00 | 17 | 1013.1 |
| 20260901171451 | 95 | 191 | 1.0 | 4.0 | 0.00 | 0.00 | 0.00 | 17 | 1013.0 |
| 20260901170952 | 94 | 160 | 1.0 | 4.0 | 0.00 | 0.00 | 0.00 | 17 | 1012.9 |
| 20260901170448 | 93 | 192 | 1.0 | 3.0 | 0.00 | 0.00 | 0.00 | 18 | 1013.0 |
| 20260901165947 | 93 | 219 | 1.0 | 3.0 | 0.00 | 0.00 | 0.00 | 17 | 1012.9 |
| 20260901165447 | 92 | 266 | 1.0 | 3.0 | 0.00 | 0.00 | 0.00 | 18 | 1012.9 |
| 20260901164948 | 92 | 190 | 1.0 | 4.0 | 0.00 | 0.00 | 0.00 | 19 | 1012.9 |
| 20260901164448 | 92 | 160 | 1.0 | 4.0 | 0.00 | 0.00 | 0.00 | 19 | 1012.9 |
| 20260901163949 | 92 | 222 | 0.0 | 3.0 | 0.00 | 0.00 | 0.00 | 18 | 1012.9 |
| 20260901163450 | 91 | 247 | 0.0 | 1.0 | 0.00 | 0.00 | 0.00 | 19 | 1012.9 |
| 20260901162948 | 91 | 236 | 0.0 | 1.0 | 0.00 | 0.00 | 0.00 | 18 | 1012.9 |
| 20260901162449 | 90 | 3 | 0.0 | 1.0 | 0.00 | 0.00 | 0.00 | 20 | 1012.9 |
| 20260901161945 | 90 | 13 | 0.0 | 1.0 | 0.00 | 0.00 | 0.00 | 19 | 1012.9 |
| 20260901161445 | 91 | 55 | 0.0 | 1.0 | 0.00 | 0.00 | 0.00 | 21 | 1012.8 |
| 20260901160945 | 90 | 175 | 0.0 | 2.0 | 0.00 | 0.00 | 0.00 | 20 | 1012.7 |
| 20260901160444 | 89 | 212 | 0.0 | 2.0 | 0.00 | 0.00 | 0.00 | 19 | 1012.7 |
| 20260901155945 | 88 | 99 | 0.0 | 2.0 | 0.00 | 0.00 | 0.00 | 20 | 1012.6 |
| 20260901155443 | 88 | 0 | 0.0 | 1.0 | 0.00 | 0.00 | 0.00 | 21 | 1012.5 |
| 20260901154944 | 88 | 116 | 0.0 | 2.0 | 0.00 | 0.00 | 0.00 | 22 | 1012.5 |
| 20260901154444 | 87 | 245 | 0.0 | 2.0 | 0.00 | 0.00 | 0.00 | 21 | 1012.5 |
| 20260901153944 | 87 | 132 | 0.0 | 1.0 | 0.00 | 0.00 | 0.00 | 22 | 1012.6 |
| 20260901153440 | 87 | 302 | 0.0 | 1.0 | 0.00 | 0.00 | 0.00 | 22 | 1012.7 |
| 20260901152940 | 87 | 89 | 0.0 | 1.0 | 0.00 | 0.00 | 0.00 | 22 | 1012.6 |
| 20260901152440 | 87 | 139 | 0.0 | 1.0 | 0.00 | 0.00 | 0.00 | 23 | 1012.6 |
| 20260901151939 | 86 | 139 | 0.0 | 1.0 | 0.00 | 0.00 | 0.00 | 28 | 1012.6 |
| 20260901151441 | 85 | 139 | 0.0 | 1.0 | 0.00 | 0.00 | 0.00 | 24 | 1012.6 |
| 20260901150941 | 84 | 140 | 0.0 | 1.0 | 0.00 | 0.00 | 0.00 | 30 | 1012.6 |
| 20260901150440 | 83 | 140 | 0.0 | 1.0 | 0.00 | 0.00 | 0.00 | 30 | 1012.5 |
| 20260901145940 | 82 | 143 | 0.0 | 1.0 | 0.00 | 0.00 | 0.00 | 33 | 1012.5 |
| 20260901145439 | 82 | 143 | 0.0 | 1.0 | 0.00 | 0.00 | 0.00 | 33 | 1012.5 |
| 20260901144934 | 81 | 175 | 0.0 | 2.0 | 0.00 | 0.00 | 0.00 | 35 | 1012.5 |
| 20260901144434 | 80 | 210 | 0.0 | 2.0 | 0.00 | 0.00 | 0.00 | 35 | 1012.4 |
| 20260901143932 | 79 | 210 | 0.0 | 2.0 | 0.00 | 0.00 | 0.00 | 34 | 1012.4 |
| 20260901143432 | 79 | 210 | 0.0 | 2.0 | 0.00 | 0.00 | 0.00 | 35 | 1012.4 |
| 20260901142931 | 79 | 139 | 0.0 | 2.0 | 0.00 | 0.00 | 0.00 | 39 | 1012.4 |
| 20260901142432 | 79 | 167 | 0.0 | 2.0 | 0.00 | 0.00 | 0.00 | 36 | 1012.4 |
| 20260901141931 | 79 | 136 | 0.0 | 1.0 | 0.00 | 0.00 | 0.00 | 37 | 1012.3 |
| 20260901140931 | 78 | 136 | 0.0 | 1.0 | 0.00 | 0.00 | 0.00 | 37 | 1012.2 |
| 20260901140432 | 77 | 162 | 0.0 | 0.0 | 0.00 | 0.00 | 0.00 | 37 | 1012.2 |
| 20260901135929 | 76 | 184 | 0.0 | 1.0 | 0.00 | 0.00 | 0.00 | 39 | 1012.2 |
| 20260901135425 | 75 | 151 | 0.0 | 1.0 | 0.00 | 0.00 | 0.00 | 39 | 1012.1 |
| 20260901135145 | 74 | 158 | 0.0 | 0.0 | 0.00 | 0.00 | 0.00 | 40 | 1012.0 |
| 20260901134415 | 74 | 158 | 0.0 | 0.0 | 0.00 | 0.00 | 0.00 | 41 | 1011.9 |
| 20260901133906 | 75 | 158 | 0.0 | 0.0 | 0.00 | 0.00 | 0.00 | 39 | 1011.9 |
| 20260901133408 | 75 | 158 | 0.0 | 1.0 | 0.00 | 0.00 | 0.00 | 38 | 1011.9 |
| 20260901133129 | 74 | 171 | 0.0 | 1.0 | 0.00 | 0.00 | 0.00 | 41 | 1011.8 |
| 20260901132406 | 74 | 171 | 0.0 | 1.0 | 0.00 | 0.00 | 0.00 | 39 | 1011.8 |
| 20260901132139 | 75 | 172 | 0.0 | 1.0 | 0.00 | 0.00 | 0.00 | 39 | 1011.7 |
| 20260901131405 | 75 | 229 | 0.0 | 1.0 | 0.00 | 0.00 | 0.00 | 39 | 1011.7 |
| 20260901131144 | 74 | 229 | 0.0 | 1.0 | 0.00 | 0.00 | 0.00 | 39 | 1011.7 |
| 20260901130634 | 74 | 200 | 1.0 | 3.0 | 0.00 | 0.00 | 0.00 | 40 | 1011.6 |
| 20260901125902 | 74 | 195 | 1.0 | 3.0 | 0.00 | 0.00 | 0.00 | 40 | 1011.5 |
| 20260901125403 | 74 | 170 | 0.0 | 1.0 | 0.00 | 0.00 | 0.00 | 39 | 1011.5 |
| 20260901124903 | 75 | 170 | 0.0 | 1.0 | 0.00 | 0.00 | 0.00 | 40 | 1011.4 |
| 20260901124402 | 75 | 148 | 0.0 | 2.0 | 0.00 | 0.00 | 0.00 | 39 | 1011.4 |
| 20260901123902 | 75 | 172 | 0.0 | 2.0 | 0.00 | 0.00 | 0.00 | 39 | 1011.4 |